C/2001 A2-A (LINEAR) 

Epoch 2001 May 11.0 TT = JDT 2452040.5  

T 2001 May 24.52354 TT                                  Nakano

q   0.7790560            (2000.0)            P               Q

z  +0.0004468      Peri.  295.32191     -0.47634696     +0.69516718

 +/-0.0000453      Node   295.12785     -0.42460487     -0.71803865

e   0.9996519      Incl.   36.48694     -0.76993784     -0.03410414

From 434 observations 2001 Jan. 3-May 19, mean residual 0".61.

   Nongravitational parameters A1 = -2.29 +/- 0.40, A2 = +1.9690 +/- 0.1583.

   (1/a)org.= +0.001018, (1/a)fut.= +0.000307, Q= 6.

Residuals in seconds of arc 

2001/                     010222 360  0.9-  0.3-    010404 300  0.1-  0.5+  

010103 699  0.3+  0.1-    010222 360  1.1-  0.2-    010404 300  0.1+  0.1+  

010103 699  0.9+  1.3+    010225 349  0.6+  1.6-    010404 300  0.2+  0.1+  

010103 704  1.5-  0.9-    010225 349  1.4+  2.0-    010404 300  0.1+  0.2-  

010103 699  0.2+  1.3+    010225 349  0.5-  1.9-    010404 300  0.5+  0.1-  

010103 704  0.1+  0.7-    010226 322  0.8+  0.7-    010404 300  0.1-  0.4+  

010103 704  0.2-  1.5+    010226 322  0.6-  1.1-    010404 300  0.4+  0.0   

010103 699  0.6+  0.8+    010226 322  1.0-  1.5-    010404 300  0.0   0.1-  

010103 704  0.3+  0.5-    010227 461  0.4+  1.7-    010404 347  0.4+  0.3+  

010103 704  1.0-  0.4+    010227 461  0.3+  0.3-    010405 428  0.5+  0.1-  

010105 704  1.7-  1.6-    010227 461  1.6-  0.6+    010405 428  0.4+  0.1+  

010105 704  1.0-  0.1+    010309 844  1.0-  0.7+    010405 428  0.4+  0.1+  

010105 704 (2.4-  0.0 )   010309 844  1.7+  0.8-    010405 428  0.4+  0.2+  

010105 704  0.1-  0.1+    010313 360  1.1-  0.6-    010405 300  0.4+  0.2-  

010105 704  0.4-  0.9+    010313 360  1.3-  0.6-    010405 300  0.6+  0.0   

010105 704  0.7-  0.4+    010313 322  0.6-  0.1-    010405 300  0.6+  0.1-  

010105 704  2.0-  1.1+    010313 322  1.1-  0.0     010405 300  0.0   0.2-  

010105 704  0.9-  0.1-    010314 921 (2.2-  0.3+)   010405 300  0.2+  0.2+  

010105 704  0.9-  0.2-    010314 952  0.9+  0.7+    010405 300  0.1+  0.0   

010106 704  0.1+  0.1+    010314 952  1.1+  1.4+    010405 300  0.7+  0.0   

010106 704  0.0   0.7+    010314 952  0.1-  0.4-    010405 300  0.3+  0.1-  

010106 704  0.5-  0.2+    010314 952  0.5+  0.3+    010405 300  0.2+  0.2+  

010115 704  0.0   0.2+    010318 349  1.5-  0.9-    010405 300  0.7+  0.2+  

010115 704  0.7-  0.0     010318 349  0.0   0.7-    010406 428  0.3+  0.0   

010115 704  0.6-  0.4+    010318 349  0.7+  0.2+    010406 428  0.3+  0.1+  

010115 046  0.5-  0.0     010318 349  0.1+  0.3+    010406 428  0.3+  0.0   

010115 046  1.1+  0.1-    010320 402  1.1-  0.7-    010406 428  0.3+  0.1-  

010115 046  0.1-  0.4-    010320 402  1.5-  0.5-    010406 170  0.3+  1.0+  

010115 046  0.4+  0.0     010320 402  0.7-  0.0     010406 170  0.3+  0.7+  

010115 046  0.7-  0.2+    010322 642 (1.0-  6.8-)   010407 428  0.0   0.0   

010115 046  0.0   0.4-    010322 642 (3.0+  2.9-)   010407 428  0.0   0.1-  

010116 557  0.1-  0.0     010322 428  0.1-  0.7-    010407 300  0.2-  0.2-  

010116 557  0.3-  0.2-    010322 428  1.0-  0.1-    010407 300  0.1-  0.2+  

010116 557  0.3-  0.0     010324 921 (3.0-  1.3-)   010407 300  0.1-  0.1+  

010116 557  0.7-  0.1-    010324 921 (3.7-  0.2-)   010407 300  0.2-  0.0   

010116 557  0.2-  0.4+    010324 921  0.5-  0.2+    010407 300  0.0   0.0   

010116 557  0.3-  0.1-    010325 170 (2.8-  2.5-)   010407 300  0.1-  0.4-  

010116 557  0.4-  0.3-    010325 170 (2.7-  2.2-)   010407 300  0.2-  0.0   

010116 046  0.2+  0.2+    010326 347  1.4+  0.2-    010407 300  0.1+  0.3+  

010116 151  0.6-  0.9-    010326 347  1.1-  0.3-    010407 300  0.1+  0.3-  

010116 046  0.4-  0.9+    010326 347  0.1-  0.8-    010408 349  0.3+  0.3-  

010116 046  0.2-  1.0+    010328 422  0.8-  0.3-    010408 349  0.6+  0.8-  

010116 151  0.1+  0.6-    010328 422  0.6-  0.1-    010408 349  0.2-  0.5-  

010116 046  0.8+  0.7+    010330 347  1.1-  0.8+    010408 349  0.4+  0.2+  

010116 046  0.2-  0.4-    010330 347  0.7-  0.9-    010410 844  0.1+  0.1+  

010116 151  0.4+  0.8-    010330 347  0.3-  0.7+    010410 844  0.4-  0.5+  

010116 151  0.7+  0.5-    010330 347  0.2-  0.9+    010410 844  1.1-  0.2+  

010117 704  0.1-  0.3-    010330 844  0.3-  0.9+    010412 170 (3.8+  1.3-) 

010117 704  0.6+  0.4+    010330 844  0.5-  0.6+    010413 300  0.1-  0.3+  

010117 704  0.4+  0.4+    010330 844  0.2-  1.1+    010413 300  0.0   0.2+  

010117 704  1.3+  0.0     010331 844  0.3+  1.2+    010413 300  0.2-  0.3+  

010117 704  0.5-  0.1+    010331 557  0.5-  0.0     010413 300  0.2-  0.2+  

010117 704  0.1-  0.1+    010331 557  0.4-  0.1+    010413 300  0.2-  0.2+  

010117 704  0.4+  0.3+    010331 557  0.5-  0.0     010413 349  0.1+  0.2+  

010117 704  0.2-  0.0     010331 557  0.4-  0.0     010413 349  0.0   0.3+  

010117 704  0.3-  0.4+    010331 557  0.5-  0.1-    010413 349  0.4+  0.0   

010117 341  0.2+  0.3-    010331 952  0.3-  1.1+    010413 349  0.3+  0.3+  

010117 341  0.0   0.3+    010331 952  0.0   0.2-    010413 341  0.1+  0.6+  

010117 341  0.4-  0.5-    010331 952  0.1-  1.1-    010413 341  0.2-  0.5+  

010117 903  0.4-  0.8-    010331 952  1.0+  1.2-    010413 341  0.0   0.5+  

010117 903  0.2+  0.4-    010331 170  0.5-  0.9+    010415 428  0.1+  0.1-  

010117 903  0.7+  1.0-    010331 046  0.1-  0.5+    010415 428  0.2+  0.2-  

010117 348  1.1+  1.3-    010331 046  0.1-  0.4+    010415 422  0.4+  0.2+  

010117 348  1.6+  0.4-    010331 046  0.2-  0.2+    010415 422  0.3+  0.1-  

010117 349  0.4-  0.2-    010331 046  0.2+  0.2+    010415 347  0.4+  0.1+  

010117 349  1.0-  1.0+    010331 046  0.4-  0.1+    010415 347  0.3+  0.1+  

010117 349  1.2-  1.1+    010331 941  1.1-  1.6-    010415 347  0.1-  0.3+  

010118 704  0.9+  1.8+    010401 713  0.6+  0.1+    010415 367  0.9-  0.2+  

010118 704  0.2-  0.2-    010401 713  0.3+  0.4+    010415 367  0.3-  0.0   

010118 704  0.2-  0.3-    010401 713  0.7+  0.0     010415 367  0.0   0.5-  

010118 704  0.4+  0.2+    010401 341  0.4-  0.1+    010415 367  0.0   0.2+  

010118 704  0.9-  0.5-    010401 349  0.1+  0.1+    010415 367  0.2+  0.4-  

010118 704  1.3+  0.5-    010401 349  0.0   0.3+    010415 620  1.0-  0.4+  

010118 704  0.0   0.6+    010401 349  0.1+  0.3+    010415 620  1.0-  0.4+  

010118 704  1.3+  0.5+    010401 341  0.2-  0.1+    010415 620  0.8-  0.5+  

010119 704  0.2+  0.4+    010401 349  0.2-  0.1+    010415 620  0.5-  0.8+  

010119 704  0.2-  0.1+    010401 347  0.2-  0.1+    010415 941  0.5+  1.9-  

010119 704  0.2-  0.2+    010401 341  0.4-  0.1+    010416 921  0.4+  0.7-  

010119 704  0.1-  0.1-    010401 347  0.3+  0.3+    010416 921  0.3-  0.4-  

010119 704  0.4+  0.3+    010401 347  0.1-  0.1-    010416 921  0.2+  0.2+  

010119 704  1.1+  1.4+    010401 341  0.3-  0.0     010416 921  0.3+  0.6-  

010119 704  0.6+  1.7-    010401 611  1.4+  1.1-    010416 921 (3.1-  0.3+) 

010119 704  0.6-  0.0     010401 611  0.4+  0.4+    010416 428  0.3+  0.4-  

010119 704  1.0-  0.6+    010401 557  0.4-  0.1+    010416 300  0.0   0.0   

010119 704  0.0   0.4+    010401 557  0.2-  0.1+    010416 300  0.3-  0.5-  

010119 704  1.0-  0.8-    010401 557  0.4-  0.0     010416 300  0.2+  0.4-  

010119 704  1.2-  0.1+    010401 557  0.3-  0.1-    010416 300  0.1-  0.0   

010119 704  0.0   0.9+    010401 557  0.2-  0.1-    010418 428  0.2-  0.1-  

010119 704  0.2+  1.8+    010401 557  0.3-  0.2-    010418 428  0.2-  0.2-  

010120 422  1.2+  0.6+    010401 557  0.3-  0.1-    010418 428  0.2-  0.1-  

010120 422  1.9+  0.8+    010401 046  0.2-  0.3+    010419 402  0.2-  0.2-  

010120 372  1.6-  0.1-    010401 046  0.2-  0.2+    010419 402  0.4-  0.2+  

010121 941 (3.6-  1.0-)   010401 046  0.3-  0.4+    010419 402  0.2-  0.0   

010121 349  1.0+  0.9+    010401 170  0.9-  0.2-    010419 360  0.6-  0.2+  

010121 349  0.6+  0.3-    010401 106  0.4-  0.3+    010419 360  0.5-  0.1+  

010121 349  1.8+  1.1+    010401 106  0.2+  0.3+    010419 360  0.3-  0.1-  

010121 372  1.2-  0.3-    010402 636  0.4+  0.2+    010419 322  0.8+  0.6-  

010121 360  0.3+  0.2-    010402 636  0.6+  0.7+    010419 322  1.3+  0.4-  

010121 360  0.4+  0.3-    010402 621  0.0   0.2+    010419 322  0.9+  0.3-  

010121 104 (2.3+  0.9+)   010402 621  0.2+  0.1-    010419 322  1.1+  0.4-  

010121 104 (3.6+  1.3+)   010402 621  0.3-  0.1+    010419 322  1.2+  0.4-  

010121 104 (2.7+  0.8+)   010402 621  0.3+  0.1+    010419 322  1.1+  0.3-  

010124 900  0.6+  1.1-    010402 621  0.3+  0.3+    010422 347  0.3+  0.2-  

010124 900  1.3+  1.6-    010402 621  0.1+  0.3+    010422 347  0.1-  0.4+  

010126 108 (0.4-  2.8-)   010402 621  0.4+  0.0     010422 349  0.1+  0.2+  

010126 108  0.1-  0.9+    010402 621  0.3+  0.4+    010422 347  0.3+  0.3+  

010126 108  0.2+  0.5-    010402 621  0.3+  0.1+    010422 349  0.1-  0.3+  

010127 046  0.2+  0.1+    010402 621  0.5+  0.4+    010422 349  0.0   0.3+  

010127 046  0.6+  0.3+    010402 636  0.7+  0.2+    010422 349  0.2+  0.2+  

010127 046  0.1-  0.9+    010403 713  0.7+  0.3+    010423 428  0.3-  0.1-  

010127 046  0.2+  0.3+    010403 713  1.0+  0.0     010423 428  0.3-  0.1-  

010128 941 (3.6-  1.1-)   010403 713  0.9+  0.1-    010423 428  0.0   0.0   

010129 372  0.6+  0.7+    010403 372  0.3-  0.9-    010423 428  0.1-  0.1-  

010130 611  0.2-  0.5+    010403 372  0.8+  0.5+    010426 422  0.8-  0.1-  

010130 611  0.2-  0.3-    010403 300  0.0   0.0     010426 422  0.6-  0.0   

010201 108 (2.7-  3.0-)   010403 300  0.4-  0.6+    010426 322  1.2+  0.2-  

010201 108  1.3-  0.2-    010403 300  0.2-  0.3+    010426 322  1.2+  0.4-  

010201 108  0.2-  1.2+    010403 300  0.4+  0.0     010426 322  1.2+  0.3-  

010202 352  0.7+  0.4-    010403 300  0.7+  0.3-    010426 844  0.5-  0.1-  

010202 352  0.1-  0.4-    010403 300  0.6+  0.2-    010426 844  0.5-  0.4+  

